User: anonymous
Location: Unspecified
(0.0000°N, 0.0000°E)
Time: 09:34:42
(UTC+00:00)
Language:

WGS F2 (USA 204) - Orbit

View from above orbital plane
View from above orbital plane
View from above satellite
View from above satellite

Ground track
Ground track

The orbit data is extracted from the following two-line orbital elements,

1 34713U 09017A   14242.83163306 0.00000000  00000-0  00000-0 0    01
2 34713   0.0060 338.4735 0003453 206.5245 153.4693  1.00270000    09
Epoch (UTC): 30 August 2014 19:57:33
Eccentricity: 0.0003453
inclination: 0.0060°
perigee height: 35772 km
apogee height: 35801 km
right ascension of ascending node: 338.4735°
argument of perigee: 206.5245°
revolutions per day: 1.00270000
mean anomaly at epoch: 153.4693°
orbit number at epoch: 0

The dashed part of the orbit path shows where the satellite is in the earth's shadow,  

DLR